timestamp,wind_dir_avg,wind_spd_avg,wind_spd_max_dir,wind_spd_gust,battery_voltage,lat,long
2023-07-03 00:04:00+00:00,212.0,6.8,213.0,7.3,12.65,47.59359,-54.27349
2023-07-03 00:14:01+00:00,201.0,5.9,200.0,6.56,12.41,47.59359,-54.27349
2023-07-03 00:24:01+00:00,192.0,4.73,195.0,5.24,12.41,47.59359,-54.27349
2023-07-03 00:34:01+00:00,185.0,4.35,188.0,4.96,12.41,47.59359,-54.27349
2023-07-03 00:44:01+00:00,193.0,4.54,196.0,5.16,12.41,47.59359,-54.27349
2023-07-03 00:54:01+00:00,203.0,5.01,204.0,5.49,12.41,47.59359,-54.27349
2023-07-03 01:04:01+00:00,208.0,5.27,206.0,5.69,12.41,47.59359,-54.27349
2023-07-03 01:14:00+00:00,222.0,6.18,223.0,6.19,12.41,47.59359,-54.27349
2023-07-03 01:24:00+00:00,315.0,0.01,222.0,0.0,12.41,47.59359,-54.27349
2023-07-03 01:34:00+00:00,315.0,0.01,222.0,0.0,12.41,47.59359,-54.27349
2023-07-03 01:44:00+00:00,213.0,5.65,215.0,5.99,12.41,47.59359,-54.27349
2023-07-03 01:54:00+00:00,315.0,0.01,215.0,0.0,12.41,47.59359,-54.27349
2023-07-03 02:04:00+00:00,213.0,4.85,214.0,4.86,12.41,47.59359,-54.27349
2023-07-03 02:14:01+00:00,208.0,4.93,204.0,5.46,12.41,47.59359,-54.27349
2023-07-03 02:24:01+00:00,236.0,3.54,239.0,3.87,12.41,47.59359,-54.27349
2023-07-03 02:34:01+00:00,214.0,3.97,215.0,4.29,12.41,47.59359,-54.27349
2023-07-03 02:44:01+00:00,230.0,2.44,229.0,2.72,12.41,47.59359,-54.27349
2023-07-03 02:54:01+00:00,229.0,2.61,231.0,3.34,12.41,47.59359,-54.27349
2023-07-03 03:04:01+00:00,214.0,3.8,215.0,4.37,12.41,47.59359,-54.27349
2023-07-03 03:14:01+00:00,212.0,5.96,214.0,6.48,12.33,47.59359,-54.27349
2023-07-03 03:24:01+00:00,199.0,4.55,198.0,4.99,12.33,47.59359,-54.27349
2023-07-03 03:34:01+00:00,203.0,4.59,210.0,5.34,12.33,47.59359,-54.27349
2023-07-03 03:44:01+00:00,211.0,4.97,211.0,5.48,12.33,47.59359,-54.27349
2023-07-03 03:54:01+00:00,219.0,4.85,226.0,5.59,12.33,47.59359,-54.27349
2023-07-03 04:04:01+00:00,229.0,4.71,224.0,5.65,12.33,47.59359,-54.27349
2023-07-03 04:14:00+00:00,227.0,5.16,224.0,5.75,12.33,47.59359,-54.27349
2023-07-03 04:24:00+00:00,225.0,5.0,228.0,5.42,12.33,47.59359,-54.27349
2023-07-03 04:34:00+00:00,227.0,6.09,242.0,8.72,12.33,47.59359,-54.27349
2023-07-03 04:44:00+00:00,224.0,5.41,220.0,5.84,12.33,47.59359,-54.27349
2023-07-03 04:54:00+00:00,220.0,5.67,217.0,6.28,12.33,47.59359,-54.27349
2023-07-03 05:04:00+00:00,220.0,5.51,221.0,6.01,12.33,47.59359,-54.27349
2023-07-03 05:14:00+00:00,219.0,5.13,221.0,5.61,12.33,47.59359,-54.27349
2023-07-03 05:24:00+00:00,215.0,5.57,217.0,6.3,12.33,47.59359,-54.27349
2023-07-03 05:34:00+00:00,209.0,5.54,206.0,6.6,12.33,47.59359,-54.27349
2023-07-03 05:44:00+00:00,215.0,6.4,214.0,7.17,12.33,47.59359,-54.27349
2023-07-03 05:54:00+00:00,214.0,6.22,215.0,7.03,12.33,47.59359,-54.27349
2023-07-03 06:04:00+00:00,212.0,7.59,211.0,8.43,12.33,47.59359,-54.27349
2023-07-03 06:14:00+00:00,214.0,7.68,224.0,9.28,12.25,47.59359,-54.27349
2023-07-03 06:24:00+00:00,208.0,5.79,205.0,6.68,12.25,47.59359,-54.27349
2023-07-03 06:34:00+00:00,227.0,4.99,222.0,5.33,12.25,47.59359,-54.27349
2023-07-03 06:44:00+00:00,214.0,4.84,216.0,5.35,12.25,47.59359,-54.27349
2023-07-03 06:54:00+00:00,208.0,5.37,203.0,6.27,12.25,47.59359,-54.27349
2023-07-03 07:04:00+00:00,205.0,5.12,206.0,5.44,12.25,47.59359,-54.27349
2023-07-03 07:14:01+00:00,208.0,5.57,211.0,6.88,12.25,47.59359,-54.27349
2023-07-03 07:24:01+00:00,207.0,5.17,213.0,5.6,12.25,47.59359,-54.27349
2023-07-03 07:34:01+00:00,212.0,6.82,215.0,7.33,12.25,47.59359,-54.27349
2023-07-03 07:44:01+00:00,204.0,6.04,208.0,6.79,12.25,47.59359,-54.27349
2023-07-03 07:54:01+00:00,220.0,6.06,216.0,6.82,12.25,47.59359,-54.27349
2023-07-03 08:04:01+00:00,215.0,5.9,214.0,6.24,12.25,47.59359,-54.27349
2023-07-03 08:14:01+00:00,315.0,0.01,215.0,0.0,12.17,47.59359,-54.27349
2023-07-03 08:24:01+00:00,210.0,4.63,211.0,4.64,12.17,47.59359,-54.27349
2023-07-03 08:34:01+00:00,222.0,4.93,223.0,4.94,12.17,47.59359,-54.27349
2023-07-03 08:44:01+00:00,221.0,4.52,222.0,4.83,12.17,47.59359,-54.27349
2023-07-03 08:54:01+00:00,214.0,4.57,210.0,4.9,12.17,47.59359,-54.27349
2023-07-03 09:04:01+00:00,213.0,5.43,215.0,5.68,12.17,47.59359,-54.27349
2023-07-03 09:14:00+00:00,214.0,4.9,215.0,5.06,12.17,47.59359,-54.27349
2023-07-03 09:24:00+00:00,221.0,4.12,223.0,4.74,12.17,47.59359,-54.27349
2023-07-03 09:34:00+00:00,223.0,3.89,221.0,4.53,12.17,47.59359,-54.27349
2023-07-03 09:44:00+00:00,234.0,2.8,236.0,3.48,12.17,47.59359,-54.27349
2023-07-03 09:54:00+00:00,233.0,3.92,234.0,4.71,12.17,47.59359,-54.27349
2023-07-03 10:04:00+00:00,230.0,3.6,231.0,3.61,12.17,47.59359,-54.27349
2023-07-03 10:14:00+00:00,224.0,3.61,220.0,4.25,12.49,47.59359,-54.27349
2023-07-03 10:24:00+00:00,232.0,3.0,233.0,3.28,12.49,47.59359,-54.27349
2023-07-03 10:34:00+00:00,234.0,4.44,227.0,5.36,12.49,47.59359,-54.27349
2023-07-03 10:44:00+00:00,224.0,4.92,221.0,5.43,12.49,47.59359,-54.27349
2023-07-03 10:54:00+00:00,219.0,5.64,215.0,6.16,12.49,47.59359,-54.27349
2023-07-03 11:04:00+00:00,218.0,5.22,218.0,5.68,12.49,47.59359,-54.27349
2023-07-03 11:14:01+00:00,203.0,5.26,213.0,6.34,13.21,47.59359,-54.27349
2023-07-03 11:24:01+00:00,212.0,4.52,210.0,5.33,13.21,47.59359,-54.27349
2023-07-03 11:34:01+00:00,208.0,5.08,205.0,5.7,13.21,47.59359,-54.27349
2023-07-03 11:44:01+00:00,207.0,4.47,201.0,5.1,13.21,47.59359,-54.27349
2023-07-03 11:54:01+00:00,200.0,3.91,205.0,4.72,13.21,47.59359,-54.27349
2023-07-03 12:04:01+00:00,210.0,4.66,209.0,5.52,13.21,47.59359,-54.27349
2023-07-03 12:14:01+00:00,208.0,4.97,215.0,5.7,13.21,47.59359,-54.27349
2023-07-03 12:24:01+00:00,208.0,5.03,215.0,5.6,13.21,47.59359,-54.27349
2023-07-03 12:34:01+00:00,204.0,5.35,203.0,5.68,13.21,47.59359,-54.27349
2023-07-03 12:44:01+00:00,208.0,5.41,202.0,5.95,13.21,47.59359,-54.27349
2023-07-03 12:54:01+00:00,206.0,5.67,206.0,6.53,13.21,47.59359,-54.27349
2023-07-03 13:04:01+00:00,204.0,5.93,203.0,6.45,13.21,47.59359,-54.27349
2023-07-03 13:14:01+00:00,204.0,5.96,203.0,6.64,13.53,47.59359,-54.27349
2023-07-03 13:24:01+00:00,206.0,5.5,204.0,6.36,13.53,47.59359,-54.27349
2023-07-03 13:34:01+00:00,204.0,6.02,203.0,6.59,13.53,47.59359,-54.27349
2023-07-03 13:44:01+00:00,204.0,6.42,202.0,7.8,13.53,47.59359,-54.27349
2023-07-03 13:54:01+00:00,206.0,6.83,212.0,7.33,13.53,47.59359,-54.27349
2023-07-03 14:04:01+00:00,205.0,7.92,203.0,9.39,13.53,47.59359,-54.27349
2023-07-03 14:14:00+00:00,202.0,6.9,202.0,7.86,13.68,47.59359,-54.27349
2023-07-03 14:24:00+00:00,202.0,6.91,204.0,7.46,13.68,47.59359,-54.27349
2023-07-03 14:34:00+00:00,200.0,6.9,200.0,7.67,13.68,47.59359,-54.27349
2023-07-03 14:44:00+00:00,202.0,6.4,201.0,6.67,13.68,47.59359,-54.27349
2023-07-03 14:54:00+00:00,200.0,5.76,198.0,6.53,13.68,47.59359,-54.27349
2023-07-03 15:04:00+00:00,196.0,6.92,197.0,7.71,13.68,47.59359,-54.27349
2023-07-03 15:14:00+00:00,193.0,7.32,196.0,8.19,13.68,47.59359,-54.27349
2023-07-03 15:24:00+00:00,197.0,6.99,195.0,7.66,13.68,47.59359,-54.27349
2023-07-03 15:34:00+00:00,203.0,6.56,203.0,6.99,13.68,47.59359,-54.27349
2023-07-03 15:44:00+00:00,203.0,6.93,202.0,7.38,13.68,47.59359,-54.27349
2023-07-03 15:54:00+00:00,203.0,6.33,205.0,6.87,13.68,47.59359,-54.27349
2023-07-03 16:04:00+00:00,202.0,5.96,202.0,6.29,13.68,47.59359,-54.27349
2023-07-03 16:14:00+00:00,200.0,7.15,197.0,9.11,13.84,47.59359,-54.27349
2023-07-03 16:24:00+00:00,198.0,6.78,200.0,7.55,13.84,47.59359,-54.27349
2023-07-03 16:34:00+00:00,195.0,6.65,195.0,7.22,13.84,47.59359,-54.27349
2023-07-03 16:44:00+00:00,199.0,6.13,197.0,6.58,13.84,47.59359,-54.27349
2023-07-03 16:54:00+00:00,202.0,5.8,199.0,6.52,13.84,47.59359,-54.27349
2023-07-03 17:04:00+00:00,197.0,6.11,198.0,6.84,13.84,47.59359,-54.27349
2023-07-03 17:14:00+00:00,196.0,7.36,197.0,8.18,13.68,47.59359,-54.27349
2023-07-03 17:24:00+00:00,194.0,7.72,195.0,7.72,13.68,47.59359,-54.27349
2023-07-03 17:34:00+00:00,196.0,8.3,197.0,8.87,13.68,47.59359,-54.27349
2023-07-03 17:44:00+00:00,201.0,8.51,204.0,9.09,13.68,47.59359,-54.27349
2023-07-03 17:54:00+00:00,195.0,7.87,195.0,8.52,13.68,47.59359,-54.27349
2023-07-03 18:04:00+00:00,200.0,8.21,202.0,8.83,13.68,47.59359,-54.27349
2023-07-03 18:14:00+00:00,201.0,8.4,202.0,9.08,13.6,47.59359,-54.27349
2023-07-03 18:24:00+00:00,199.0,7.61,201.0,8.07,13.6,47.59359,-54.27349
2023-07-03 18:34:00+00:00,207.0,7.78,206.0,8.23,13.6,47.59359,-54.27349
2023-07-03 18:44:00+00:00,202.0,7.14,202.0,7.74,13.6,47.59359,-54.27349
2023-07-03 18:54:00+00:00,206.0,7.76,207.0,8.54,13.6,47.59359,-54.27349
2023-07-03 19:04:00+00:00,202.0,8.46,203.0,8.46,13.6,47.59359,-54.27349
2023-07-03 19:14:00+00:00,204.0,7.11,205.0,7.12,13.84,47.59359,-54.27349
2023-07-03 19:24:00+00:00,315.0,0.01,207.0,0.0,13.84,47.59359,-54.27349
2023-07-03 19:34:00+00:00,200.0,6.26,198.0,6.94,13.84,47.59359,-54.27349
2023-07-03 19:44:00+00:00,208.0,6.52,209.0,7.16,13.84,47.59359,-54.27349
2023-07-03 19:54:00+00:00,213.0,5.64,213.0,6.17,13.84,47.59359,-54.27349
2023-07-03 20:04:00+00:00,210.0,5.53,214.0,6.26,13.84,47.59359,-54.27349
2023-07-03 20:14:00+00:00,206.0,5.38,211.0,6.15,13.68,47.59359,-54.27349
2023-07-03 20:24:00+00:00,203.0,7.13,203.0,7.57,13.68,47.59359,-54.27349
2023-07-03 20:34:00+00:00,208.0,6.87,205.0,7.93,13.68,47.59359,-54.27349
2023-07-03 20:44:00+00:00,212.0,6.2,210.0,6.58,13.68,47.59359,-54.27349
2023-07-03 20:54:00+00:00,200.0,6.47,199.0,6.85,13.68,47.59359,-54.27349
2023-07-03 21:04:00+00:00,199.0,6.38,203.0,6.74,13.68,47.59359,-54.27349
2023-07-03 21:14:00+00:00,204.0,7.06,205.0,7.96,13.44,47.59359,-54.27349
2023-07-03 21:24:00+00:00,211.0,7.47,210.0,7.53,13.44,47.59359,-54.27349
2023-07-03 21:34:00+00:00,211.0,7.8,213.0,8.27,13.44,47.59359,-54.27349
2023-07-03 21:44:00+00:00,209.0,6.94,212.0,7.26,13.44,47.59359,-54.27349
2023-07-03 21:54:00+00:00,213.0,7.74,213.0,7.86,13.44,47.59359,-54.27349
2023-07-03 22:04:00+00:00,213.0,6.95,214.0,7.35,13.44,47.59359,-54.27349
2023-07-03 22:14:00+00:00,216.0,5.92,216.0,6.6,13.21,47.59359,-54.27349
2023-07-03 22:24:00+00:00,315.0,0.01,236.0,0.0,13.21,47.59359,-54.27349
2023-07-03 22:34:00+00:00,222.0,5.67,227.0,6.06,13.21,47.59359,-54.27349
2023-07-03 22:44:00+00:00,236.0,6.93,247.0,10.32,13.21,47.59359,-54.27349
2023-07-03 22:54:00+00:00,214.0,6.14,214.0,6.39,13.21,47.59359,-54.27349
2023-07-03 23:04:00+00:00,220.0,5.3,217.0,5.84,13.21,47.59359,-54.27349
2023-07-03 23:14:00+00:00,229.0,4.52,227.0,5.43,12.73,47.59359,-54.27349
2023-07-03 23:24:00+00:00,219.0,4.49,221.0,4.99,12.73,47.59359,-54.27349
2023-07-03 23:34:00+00:00,315.0,0.01,235.0,0.0,12.73,47.59359,-54.27349
2023-07-03 23:44:00+00:00,182.0,1.76,185.0,2.56,12.73,47.59359,-54.27349
2023-07-03 23:54:00+00:00,194.0,2.6,199.0,2.9,12.73,47.59359,-54.27349
